BAW298 KJFK-EGLL

Flight info

Callsign BAW298
Flight time N/A
Altitude 37000
Route MERIT DCT HFD DCT PUT DCT WITCH DCT ALLEX N431B ELSIR/M085F390 DCT 50N050W 51N040W 52N030W 53N020W DCT MALOT DCT GISTI/N0482F390 DCT ENJEX DCT AVZAC DCT INFEC DCT JETZI DCT AMFUL DCT ORZEB/N0387F230 P2 SIRIC
Aircraft A388/J-SADE2E3FGHIJ3J4J5M1RWXY/LB1D1

Departure

Time 2026-05-05 19:35
Airport John F. Kennedy International Airport (KJFK)

Arrival

Time N/A
Airport London Heathrow Airport (EGLL)
Time Latitude Longitude Altitude Speed Heading
2026-05-05 18:52 40.65078 -73.78400 28 ft 0 kts 121°
2026-05-05 19:20 40.65079 -73.78403 25 ft 3 kts 120°
2026-05-05 19:21 40.65089 -73.78430 25 ft 3 kts 99°
2026-05-05 19:21 40.65088 -73.78457 28 ft 3 kts 59°
2026-05-05 19:21 40.65073 -73.78476 31 ft 3 kts 23°
2026-05-05 19:21 40.65051 -73.78485 31 ft 3 kts 10°
2026-05-05 19:22 40.65032 -73.78489 31 ft 0 kts
2026-05-05 19:26 40.65055 -73.78484 28 ft 6 kts
2026-05-05 19:26 40.65104 -73.78468 31 ft 10 kts 18°
2026-05-05 19:26 40.65130 -73.78456 30 ft 6 kts 18°
2026-05-05 19:27 40.65184 -73.78431 28 ft 11 kts 22°
2026-05-05 19:27 40.65235 -73.78374 29 ft 9 kts 82°
2026-05-05 19:27 40.65228 -73.78314 28 ft 6 kts 105°
2026-05-05 19:27 40.65210 -73.78257 30 ft 7 kts 119°
2026-05-05 19:28 40.65183 -73.78194 30 ft 8 kts 120°
2026-05-05 19:28 40.65154 -73.78130 30 ft 8 kts 122°
2026-05-05 19:28 40.65120 -73.78059 31 ft 10 kts 123°
2026-05-05 19:28 40.65084 -73.77981 31 ft 10 kts 121°
2026-05-05 19:29 40.65048 -73.77898 29 ft 11 kts 119°
2026-05-05 19:29 40.65011 -73.77811 30 ft 11 kts 120°
2026-05-05 19:29 40.64975 -73.77729 29 ft 11 kts 121°
2026-05-05 19:29 40.64937 -73.77644 31 ft 11 kts 121°
2026-05-05 19:30 40.64900 -73.77562 29 ft 10 kts 121°
2026-05-05 19:30 40.64864 -73.77485 30 ft 9 kts 122°
2026-05-05 19:30 40.64830 -73.77416 31 ft 9 kts 123°
2026-05-05 19:30 40.64796 -73.77347 31 ft 9 kts 123°
2026-05-05 19:31 40.64765 -73.77275 30 ft 8 kts 109°
2026-05-05 19:31 40.64761 -73.77214 29 ft 6 kts 76°
2026-05-05 19:31 40.64782 -73.77165 28 ft 7 kts 53°
2026-05-05 19:31 40.64813 -73.77111 29 ft 8 kts 54°
2026-05-05 19:32 40.64850 -73.77041 27 ft 10 kts 56°
2026-05-05 19:32 40.64895 -73.76951 27 ft 13 kts 57°
2026-05-05 19:32 40.64957 -73.76833 27 ft 17 kts 56°
2026-05-05 19:32 40.64973 -73.76718 27 ft 13 kts 95°
2026-05-05 19:33 40.64996 -73.76615 26 ft 13 kts 40°
2026-05-05 19:33 40.65075 -73.76542 26 ft 11 kts 45°
2026-05-05 19:33 40.65093 -73.76467 27 ft 6 kts 103°
2026-05-05 19:33 40.65077 -73.76417 28 ft 6 kts 117°
2026-05-05 19:34 40.65062 -73.76379 28 ft 4 kts 126°
2026-05-05 19:34 40.65042 -73.76359 27 ft 3 kts 163°
2026-05-05 19:34 40.65022 -73.76359 27 ft 2 kts 199°
2026-05-05 19:35 40.64792 -73.76534 27 ft 94 kts 211°
2026-05-05 19:35 40.63985 -73.77170 69 ft 165 kts 216°
2026-05-05 19:35 40.62972 -73.78072 525 ft 184 kts 210°
2026-05-05 19:35 40.61886 -73.79067 1168 ft 190 kts 221°
2026-05-05 19:36 40.61337 -73.80562 2215 ft 187 kts 256°
2026-05-05 19:36 40.61557 -73.82340 2817 ft 217 kts 289°
2026-05-05 19:36 40.62648 -73.83958 3493 ft 260 kts 319°
2026-05-05 19:36 40.64452 -73.84911 4112 ft 295 kts 345°
2026-05-05 19:37 40.66508 -73.84782 4739 ft 298 kts 12°
2026-05-05 19:37 40.68346 -73.83532 5340 ft 305 kts 39°
2026-05-05 19:37 40.69684 -73.81355 5979 ft 306 kts 62°
2026-05-05 19:37 40.70691 -73.78857 6601 ft 310 kts 60°
2026-05-05 19:38 40.71931 -73.76536 7203 ft 315 kts 49°
2026-05-05 19:38 40.73484 -73.74468 7821 ft 318 kts 39°
2026-05-05 19:38 40.75215 -73.72622 8411 ft 321 kts 33°
2026-05-05 19:38 40.77041 -73.70880 9070 ft 323 kts 30°
2026-05-05 19:39 40.78875 -73.69196 9728 ft 328 kts 29°
2026-05-05 19:39 40.80778 -73.67464 10333 ft 338 kts 28°
2026-05-05 19:39 40.82761 -73.65659 10976 ft 354 kts 30°
2026-05-05 19:39 40.84827 -73.63761 11579 ft 368 kts 30°
2026-05-05 19:40 40.86932 -73.61812 12217 ft 377 kts 30°
2026-05-05 19:40 40.89097 -73.59797 12859 ft 380 kts 30°
2026-05-05 19:40 40.91265 -73.57774 13514 ft 382 kts 30°
2026-05-05 19:40 40.93450 -73.55738 14120 ft 384 kts 30°
2026-05-05 19:41 40.95619 -73.53717 14709 ft 387 kts 31°
2026-05-05 19:41 40.97856 -73.51634 15334 ft 389 kts 31°
2026-05-05 19:41 41.00055 -73.49585 15960 ft 392 kts 31°
2026-05-05 19:41 41.02294 -73.47496 16608 ft 396 kts 31°
2026-05-05 19:42 41.04559 -73.45382 17258 ft 399 kts 32°
2026-05-05 19:42 41.06834 -73.43255 17917 ft 402 kts 32°
2026-05-05 19:42 41.09116 -73.41120 18526 ft 405 kts 32°
2026-05-05 19:42 41.11439 -73.38945 19146 ft 408 kts 32°
2026-05-05 19:43 41.13782 -73.36749 19756 ft 412 kts 32°
2026-05-05 19:43 41.16101 -73.34574 20348 ft 415 kts 32°
2026-05-05 19:43 41.18485 -73.32336 21001 ft 419 kts 32°
2026-05-05 19:43 41.20873 -73.30092 21642 ft 422 kts 32°
2026-05-05 19:44 41.23254 -73.27853 22285 ft 424 kts 32°
2026-05-05 19:44 41.25598 -73.25647 22937 ft 426 kts 32°
2026-05-05 19:44 41.28022 -73.23362 23594 ft 428 kts 32°
2026-05-05 19:44 41.30465 -73.21058 24178 ft 430 kts 32°
2026-05-05 19:45 41.32921 -73.18740 24754 ft 432 kts 32°
2026-05-05 19:45 41.35343 -73.16431 25351 ft 434 kts 34°
2026-05-05 19:45 41.37611 -73.13728 25970 ft 440 kts 43°
2026-05-05 19:45 41.39564 -73.10553 26611 ft 446 kts 53°
2026-05-05 19:46 41.41186 -73.07007 27253 ft 450 kts 58°
2026-05-05 19:46 41.42766 -73.03393 27911 ft 453 kts 57°
2026-05-05 19:46 41.44380 -72.99748 28593 ft 455 kts 57°
2026-05-05 19:46 41.45998 -72.96098 29282 ft 458 kts 57°
2026-05-05 19:47 41.47600 -72.92476 29957 ft 461 kts 57°
2026-05-05 19:47 41.49228 -72.88784 30551 ft 464 kts 57°
2026-05-05 19:47 41.50876 -72.85038 31119 ft 469 kts 57°
2026-05-05 19:47 41.52544 -72.81243 31407 ft 479 kts 57°
2026-05-05 19:48 41.54250 -72.77358 31661 ft 490 kts 57°
2026-05-05 19:48 41.55982 -72.73402 31922 ft 493 kts 57°
2026-05-05 19:48 41.57694 -72.69486 32177 ft 495 kts 57°
2026-05-05 19:48 41.59432 -72.65504 32407 ft 496 kts 57°
2026-05-05 19:49 41.61176 -72.61505 32661 ft 499 kts 57°
2026-05-05 19:49 41.62343 -72.58827 32841 ft 499 kts 58°
2026-05-05 19:49 41.64686 -72.53447 33201 ft 501 kts 57°
2026-05-05 19:49 41.66459 -72.49474 33473 ft 504 kts 57°
2026-05-05 19:50 41.68282 -72.45456 33758 ft 506 kts 57°
2026-05-05 19:50 41.70123 -72.41404 34008 ft 508 kts 57°
2026-05-05 19:50 41.71945 -72.37375 34255 ft 511 kts 57°
2026-05-05 19:50 41.73782 -72.33297 34493 ft 511 kts 57°
2026-05-05 19:51 41.75616 -72.29214 34737 ft 511 kts 57°
2026-05-05 19:51 41.77448 -72.25125 34995 ft 511 kts 57°
2026-05-05 19:51 41.79272 -72.21049 35231 ft 509 kts 58°
2026-05-05 19:51 41.81097 -72.16965 35500 ft 510 kts 58°
2026-05-05 19:52 41.82922 -72.12875 35786 ft 512 kts 58°
2026-05-05 19:52 41.84751 -72.08771 36015 ft 512 kts 58°
2026-05-05 19:52 41.86579 -72.04663 36282 ft 512 kts 58°
2026-05-05 19:52 41.88387 -72.00594 36549 ft 512 kts 58°
2026-05-05 19:53 41.90216 -71.96473 36816 ft 512 kts 58°
2026-05-05 19:53 41.93895 -71.88243 36872 ft 515 kts 56°
2026-05-05 19:54 41.98382 -71.80748 36864 ft 513 kts 44°
2026-05-05 19:54 42.03485 -71.74102 36870 ft 514 kts 42°
2026-05-05 19:55 42.08596 -71.67384 36872 ft 514 kts 42°
2026-05-05 19:55 42.13725 -71.60642 36881 ft 514 kts 42°
2026-05-05 19:56 42.18828 -71.53929 36850 ft 514 kts 43°
2026-05-05 19:56 42.23959 -71.47163 36835 ft 514 kts 43°
2026-05-05 19:57 42.29050 -71.40435 36825 ft 514 kts 43°
2026-05-05 19:57 42.34186 -71.33629 36809 ft 515 kts 43°
2026-05-05 19:58 42.39276 -71.26869 36804 ft 515 kts 43°
2026-05-05 19:58 42.44397 -71.20051 36833 ft 516 kts 43°
2026-05-05 19:59 42.49498 -71.13244 36824 ft 517 kts 43°
2026-05-05 19:59 42.54618 -71.06395 36830 ft 517 kts 43°
2026-05-05 20:00 42.59742 -70.99523 36824 ft 517 kts 43°
2026-05-05 20:00 42.64875 -70.92623 36816 ft 518 kts 43°
2026-05-05 20:01 42.69573 -70.85246 36838 ft 520 kts 53°
2026-05-05 20:01 42.73528 -70.76968 36808 ft 520 kts 56°
2026-05-05 20:02 42.77442 -70.68766 36825 ft 520 kts 56°
2026-05-05 20:02 42.81383 -70.60475 36802 ft 521 kts 56°
2026-05-05 20:03 42.85311 -70.52160 36800 ft 521 kts 56°
2026-05-05 20:03 42.89207 -70.43880 36809 ft 521 kts 57°
2026-05-05 20:04 42.93128 -70.35526 36802 ft 522 kts 57°
2026-05-05 20:04 42.97030 -70.27187 36807 ft 522 kts 57°
2026-05-05 20:05 43.00941 -70.18806 36804 ft 522 kts 57°
2026-05-05 20:05 43.04818 -70.10475 36819 ft 522 kts 57°
2026-05-05 20:06 43.08059 -70.03493 36823 ft 522 kts 57°
2026-05-05 20:06 43.11944 -69.95101 36826 ft 522 kts 57°
2026-05-05 20:07 43.15823 -69.86698 36837 ft 522 kts 57°
2026-05-05 20:07 43.19676 -69.78326 36836 ft 522 kts 57°
2026-05-05 20:08 43.23560 -69.69866 36836 ft 522 kts 57°
2026-05-05 20:08 43.27402 -69.61471 36833 ft 522 kts 57°
2026-05-05 20:09 43.31264 -69.53008 36847 ft 522 kts 57°
2026-05-05 20:09 43.35114 -69.44546 36841 ft 522 kts 57°
2026-05-05 20:10 43.38936 -69.36124 36842 ft 522 kts 57°
2026-05-05 20:10 43.42778 -69.27632 36853 ft 521 kts 57°
2026-05-05 20:11 43.46609 -69.19139 36849 ft 522 kts 57°
2026-05-05 20:11 43.50417 -69.10672 36843 ft 522 kts 57°
2026-05-05 20:12 43.54240 -69.02147 36848 ft 522 kts 57°
2026-05-05 20:12 43.58030 -68.93674 36843 ft 522 kts 58°
2026-05-05 20:13 43.61842 -68.85123 36837 ft 522 kts 57°
2026-05-05 20:13 43.65652 -68.76553 36851 ft 522 kts 58°
2026-05-05 20:14 43.69427 -68.68036 36854 ft 522 kts 57°
2026-05-05 20:14 43.73226 -68.59442 36875 ft 522 kts 57°
2026-05-05 20:15 43.76990 -68.50899 36858 ft 522 kts 58°
2026-05-05 20:15 43.80751 -68.42340 36856 ft 522 kts 58°
2026-05-05 20:16 43.84526 -68.33722 36863 ft 522 kts 58°
2026-05-05 20:16 43.88272 -68.25145 36858 ft 522 kts 58°
2026-05-05 20:17 43.92032 -68.16512 36860 ft 522 kts 58°
2026-05-05 20:17 43.95784 -68.07869 36870 ft 521 kts 58°
2026-05-05 20:18 43.99501 -67.99280 36868 ft 521 kts 58°
2026-05-05 20:18 44.03234 -67.90632 36868 ft 521 kts 58°
2026-05-05 20:19 44.06936 -67.82028 36874 ft 521 kts 58°
2026-05-05 20:19 44.10639 -67.73396 36872 ft 521 kts 58°
2026-05-05 20:20 44.14350 -67.64717 36879 ft 521 kts 58°
2026-05-05 20:20 44.18060 -67.56016 36887 ft 520 kts 58°
2026-05-05 20:21 44.21733 -67.47376 36892 ft 519 kts 58°
2026-05-05 20:21 44.25418 -67.38682 36882 ft 519 kts 58°
2026-05-05 20:22 44.29068 -67.30044 36884 ft 519 kts 58°
2026-05-05 20:22 44.32738 -67.21332 36868 ft 519 kts 58°
2026-05-05 20:23 44.36371 -67.12683 36874 ft 519 kts 58°
2026-05-05 20:23 44.39944 -67.04166 36868 ft 519 kts 58°
2026-05-05 20:24 44.41594 -67.00226 36865 ft 519 kts 58°
2026-05-05 20:24 44.45223 -66.91480 36865 ft 519 kts 58°
2026-05-05 20:25 44.48825 -66.82777 36899 ft 518 kts 58°
2026-05-05 20:25 44.52447 -66.74028 36896 ft 518 kts 58°
2026-05-05 20:26 44.56043 -66.65324 36890 ft 518 kts 58°
2026-05-05 20:26 44.59655 -66.56565 36887 ft 518 kts 58°
2026-05-05 20:27 44.63250 -66.47851 36884 ft 518 kts 58°
2026-05-05 20:27 44.66866 -66.39089 36882 ft 518 kts 58°
2026-05-05 20:28 44.70476 -66.30332 36875 ft 518 kts 58°
2026-05-05 20:28 44.74091 -66.21566 36875 ft 518 kts 58°
2026-05-05 20:29 44.77690 -66.12843 36885 ft 518 kts 58°
2026-05-05 20:29 44.81316 -66.04052 36902 ft 518 kts 58°
2026-05-05 20:30 44.84911 -65.95299 36888 ft 518 kts 58°
2026-05-05 20:30 44.88531 -65.86482 36888 ft 518 kts 58°
2026-05-05 20:31 44.92149 -65.77674 36888 ft 519 kts 58°
2026-05-05 20:31 44.95757 -65.68895 36885 ft 520 kts 58°
2026-05-05 20:32 44.99401 -65.60030 36876 ft 521 kts 58°
2026-05-05 20:32 45.03028 -65.51173 36884 ft 520 kts 58°
2026-05-05 20:33 45.06630 -65.42356 36882 ft 520 kts 58°
2026-05-05 20:33 45.10261 -65.33477 36871 ft 521 kts 58°
2026-05-05 20:34 45.13893 -65.24606 36872 ft 521 kts 58°
2026-05-05 20:34 45.17481 -65.15878 36861 ft 510 kts 58°
2026-05-05 20:35 45.21099 -65.07125 36879 ft 515 kts 58°
2026-05-05 20:35 45.24723 -64.98356 36877 ft 516 kts 57°
2026-05-05 20:35 45.26486 -64.94043 36872 ft 495 kts 58°
2026-05-05 20:36 45.28167 -64.89895 36863 ft 471 kts 57°
2026-05-05 20:36 45.29758 -64.85939 36876 ft 450 kts 58°
2026-05-05 20:36 45.31253 -64.82194 36882 ft 432 kts 58°
2026-05-05 20:36 45.32705 -64.78544 36877 ft 415 kts 58°
2026-05-05 20:37 45.34097 -64.75028 36872 ft 399 kts 58°
2026-05-05 20:37 45.36696 -64.68408 36872 ft 370 kts 58°
2026-05-05 20:37 45.37920 -64.65260 36870 ft 356 kts 58°
2026-05-05 20:38 45.39095 -64.62223 36874 ft 341 kts 58°
2026-05-05 20:38 45.40197 -64.59356 36869 ft 326 kts 58°
2026-05-05 20:38 45.41252 -64.56589 36862 ft 309 kts 58°
2026-05-05 20:38 45.42267 -64.53919 36522 ft 306 kts 58°
2026-05-05 20:39 45.43295 -64.51230 35925 ft 313 kts 58°
2026-05-05 20:39 45.44349 -64.48489 35460 ft 314 kts 58°
2026-05-05 20:39 45.45392 -64.45782 35205 ft 309 kts 58°
2026-05-05 20:39 45.46419 -64.43116 34915 ft 304 kts 57°
2026-05-05 20:40 45.47422 -64.40519 34543 ft 303 kts 58°
2026-05-05 20:40 45.48444 -64.37883 34186 ft 303 kts 57°
2026-05-05 20:40 45.49470 -64.35244 33785 ft 304 kts 57°
2026-05-05 20:40 45.50498 -64.32609 33410 ft 302 kts 57°
2026-05-05 20:41 45.51505 -64.30033 33062 ft 300 kts 57°
2026-05-05 20:41 45.52522 -64.27440 32699 ft 298 kts 57°
2026-05-05 20:41 45.53535 -64.24861 32315 ft 297 kts 57°
2026-05-05 20:41 45.54538 -64.22317 31961 ft 296 kts 57°
2026-05-05 20:42 45.55545 -64.19764 31663 ft 292 kts 57°
2026-05-05 20:42 45.56541 -64.17244 31336 ft 290 kts 57°
2026-05-05 20:42 45.57535 -64.14736 30974 ft 289 kts 57°
2026-05-05 20:42 45.58525 -64.12246 30625 ft 289 kts 57°
2026-05-05 20:43 45.59507 -64.09778 30312 ft 288 kts 57°
2026-05-05 20:43 45.60494 -64.07291 30005 ft 286 kts 57°
2026-05-05 20:43 45.61276 -64.05297 29726 ft 285 kts 58°
2026-05-05 20:43 45.62244 -64.02790 29343 ft 285 kts 58°
2026-05-05 20:44 45.63191 -64.00290 28971 ft 285 kts 58°
2026-05-05 20:44 45.64107 -63.97827 28641 ft 283 kts 59°
2026-05-05 20:44 45.65012 -63.95344 28305 ft 281 kts 59°
2026-05-05 20:44 45.65907 -63.92847 27978 ft 281 kts 60°
2026-05-05 20:45 45.67655 -63.87923 27346 ft 278 kts 60°
2026-05-05 20:45 45.68521 -63.85467 27035 ft 277 kts 61°
2026-05-05 20:45 45.69356 -63.82981 26727 ft 276 kts 63°
2026-05-05 20:46 45.70095 -63.80442 26420 ft 275 kts 69°
2026-05-05 20:46 45.70656 -63.77872 26103 ft 274 kts 77°
2026-05-05 20:46 45.70970 -63.75380 25831 ft 272 kts 86°
2026-05-05 20:47 45.71054 -63.72673 25447 ft 272 kts 95°
2026-05-05 20:47 45.70890 -63.69889 24331 ft 303 kts 104°
2026-05-05 20:47 45.70400 -63.66806 23435 ft 324 kts 113°
2026-05-05 20:47 45.69594 -63.63781 23511 ft 320 kts 122°
2026-05-05 20:48 45.68582 -63.61088 24329 ft 294 kts 129°
2026-05-05 20:48 45.67442 -63.58756 24893 ft 280 kts 137°
2026-05-05 20:48 45.66149 -63.56702 25009 ft 285 kts 145°
2026-05-05 20:48 45.64624 -63.54835 25035 ft 290 kts 153°
2026-05-05 20:49 45.62949 -63.53270 25309 ft 285 kts 160°
2026-05-05 20:49 45.61198 -63.52045 25708 ft 274 kts 167°
2026-05-05 20:49 45.59411 -63.51191 25987 ft 268 kts 176°
2026-05-05 20:49 45.57570 -63.50759 26161 ft 265 kts 186°
2026-05-05 20:50 45.55762 -63.50774 26357 ft 261 kts 195°
2026-05-05 20:50 45.54559 -63.51040 26511 ft 257 kts 202°
2026-05-05 20:50 45.52360 -63.52139 26852 ft 249 kts 215°
2026-05-05 20:50 45.50907 -63.53429 27089 ft 244 kts 225°
2026-05-05 20:51 45.49666 -63.55081 27308 ft 241 kts 234°
2026-05-05 20:51 45.48695 -63.57013 27507 ft 240 kts 244°
2026-05-05 20:51 45.48019 -63.59149 27717 ft 239 kts 253°
2026-05-05 20:51 45.47644 -63.61469 27928 ft 240 kts 263°
2026-05-05 20:52 45.47598 -63.63860 28148 ft 242 kts 273°
2026-05-05 20:52 45.47882 -63.66237 28366 ft 246 kts 282°
2026-05-05 20:52 45.48492 -63.68535 28568 ft 250 kts 292°
2026-05-05 20:52 45.49411 -63.70672 28766 ft 256 kts 301°
2026-05-05 20:53 45.50616 -63.72584 28957 ft 263 kts 310°
2026-05-05 20:53 45.52079 -63.74208 29149 ft 270 kts 320°
2026-05-05 20:53 45.53736 -63.75472 29331 ft 278 kts 329°
2026-05-05 20:53 45.55597 -63.76365 29544 ft 285 kts 338°
2026-05-05 20:54 45.57576 -63.76820 29777 ft 292 kts 347°
2026-05-05 20:54 45.58941 -63.76878 29862 ft 299 kts 353°
2026-05-05 20:54 45.63164 -63.75816 30092 ft 317 kts 11°
2026-05-05 20:55 45.65226 -63.74581 30265 ft 323 kts 20°
2026-05-05 20:55 45.67164 -63.72914 30420 ft 328 kts 30°
2026-05-05 20:55 45.68920 -63.70859 30709 ft 329 kts 39°
2026-05-05 20:55 45.70448 -63.68459 31110 ft 325 kts 48°
2026-05-05 20:56 45.71723 -63.65781 31319 ft 327 kts 57°
2026-05-05 20:56 45.72744 -63.62819 31362 ft 335 kts 66°
2026-05-05 20:56 45.73903 -63.56288 31631 ft 339 kts 84°
2026-05-05 20:57 45.73967 -63.51837 31913 ft 336 kts 96°
2026-05-05 20:57 45.73793 -63.49632 32023 ft 336 kts 102°
2026-05-05 20:57 45.73273 -63.46360 32124 ft 336 kts 111°
2026-05-05 20:57 45.72456 -63.43242 32238 ft 334 kts 120°
2026-05-05 20:58 45.71357 -63.40325 32398 ft 331 kts 129°
2026-05-05 20:58 45.70021 -63.37700 32535 ft 326 kts 137°
2026-05-05 20:58 45.66969 -63.32709 32053 ft 363 kts 121°
2026-05-05 20:59 45.66112 -63.29147 31537 ft 396 kts 99°
2026-05-05 20:59 45.66097 -63.25087 31097 ft 423 kts 79°
2026-05-05 20:59 45.66960 -63.21053 30985 ft 436 kts 62°
2026-05-05 20:59 45.68598 -63.17364 30986 ft 443 kts 45°
2026-05-05 21:00 45.70863 -63.14326 30990 ft 448 kts 31°
2026-05-05 21:00 45.73395 -63.11621 30992 ft 464 kts 38°
2026-05-05 21:00 45.75609 -63.08136 31000 ft 482 kts 51°
2026-05-05 21:00 45.77331 -63.03988 31009 ft 498 kts 63°
2026-05-05 21:01 45.78635 -62.99328 31131 ft 508 kts 68°
2026-05-05 21:01 45.79966 -62.94584 31393 ft 513 kts 64°
2026-05-05 21:01 45.81502 -62.89951 31649 ft 517 kts 60°
2026-05-05 21:01 45.83221 -62.85377 31912 ft 521 kts 58°
2026-05-05 21:02 45.85019 -62.80890 32163 ft 526 kts 57°
2026-05-05 21:02 45.86887 -62.76343 32435 ft 531 kts 57°
2026-05-05 21:02 45.88787 -62.71746 32710 ft 536 kts 57°
2026-05-05 21:02 45.90699 -62.67112 32969 ft 541 kts 57°
2026-05-05 21:03 45.92629 -62.62418 33261 ft 545 kts 57°
2026-05-05 21:03 45.94508 -62.57829 33526 ft 536 kts 57°
2026-05-05 21:03 45.96384 -62.53229 33808 ft 527 kts 57°
2026-05-05 21:03 45.98241 -62.48671 34059 ft 527 kts 57°
2026-05-05 21:04 46.00073 -62.44166 34295 ft 526 kts 57°
2026-05-05 21:04 46.01920 -62.39613 34550 ft 525 kts 57°
2026-05-05 21:04 46.03764 -62.35061 34784 ft 525 kts 57°
2026-05-05 21:04 46.05606 -62.30504 35039 ft 525 kts 57°
2026-05-05 21:05 46.07447 -62.25942 35308 ft 526 kts 57°
2026-05-05 21:05 46.09259 -62.21446 35560 ft 525 kts 57°
2026-05-05 21:05 46.11096 -62.16878 35812 ft 525 kts 57°
2026-05-05 21:05 46.12929 -62.12314 36076 ft 525 kts 57°
2026-05-05 21:06 46.14763 -62.07739 36340 ft 525 kts 57°
2026-05-05 21:06 46.16571 -62.03222 36604 ft 524 kts 57°
2026-05-05 21:06 46.18402 -61.98639 36850 ft 524 kts 57°
2026-05-05 21:06 46.20228 -61.94060 36922 ft 524 kts 57°
2026-05-05 21:07 46.23835 -61.84995 36903 ft 523 kts 57°
2026-05-05 21:07 46.27463 -61.75849 36900 ft 523 kts 57°
2026-05-05 21:08 46.31082 -61.66693 36892 ft 523 kts 57°
2026-05-05 21:08 46.34663 -61.57603 36896 ft 520 kts 57°
2026-05-05 21:09 46.38239 -61.48494 36875 ft 518 kts 58°
2026-05-05 21:09 46.41784 -61.39435 36862 ft 517 kts 58°
2026-05-05 21:10 46.45299 -61.30424 36848 ft 515 kts 58°
2026-05-05 21:10 46.48828 -61.21347 36898 ft 518 kts 58°
2026-05-05 21:11 46.52386 -61.12168 36884 ft 522 kts 58°
2026-05-05 21:11 46.55922 -61.03010 36890 ft 522 kts 58°
2026-05-05 21:12 46.59474 -60.93780 36890 ft 522 kts 58°
2026-05-05 21:12 46.63017 -60.84541 36890 ft 521 kts 58°
2026-05-05 21:13 46.66515 -60.75389 36874 ft 520 kts 58°
2026-05-05 21:13 46.70027 -60.66171 36874 ft 519 kts 58°
2026-05-05 21:14 46.73530 -60.56945 36884 ft 518 kts 58°
2026-05-05 21:14 46.76993 -60.47793 36861 ft 519 kts 58°
2026-05-05 21:15 46.80479 -60.38547 36860 ft 518 kts 58°
2026-05-05 21:15 46.83938 -60.29343 36874 ft 518 kts 58°
2026-05-05 21:16 46.87404 -60.20089 36874 ft 519 kts 58°
2026-05-05 21:16 46.90843 -60.10874 36882 ft 520 kts 58°
2026-05-05 21:17 46.94310 -60.01554 36911 ft 521 kts 58°
2026-05-05 21:17 46.97786 -59.92174 36920 ft 523 kts 58°
2026-05-05 21:18 47.01238 -59.82831 36928 ft 524 kts 58°
2026-05-05 21:18 47.04690 -59.73450 36935 ft 525 kts 58°
2026-05-05 21:19 47.08164 -59.63978 36943 ft 526 kts 58°
2026-05-05 21:19 47.11628 -59.54500 36946 ft 526 kts 58°
2026-05-05 21:20 47.15056 -59.45084 36943 ft 527 kts 58°
2026-05-05 21:20 47.18522 -59.35532 36953 ft 527 kts 58°
2026-05-05 21:21 47.21944 -59.26068 36951 ft 527 kts 58°
2026-05-05 21:21 47.25383 -59.16522 36950 ft 526 kts 58°
2026-05-05 21:22 47.28799 -59.07005 36948 ft 527 kts 58°
2026-05-05 21:22 47.32198 -58.97503 36964 ft 527 kts 58°
2026-05-05 21:23 47.35620 -58.87903 36966 ft 527 kts 58°
2026-05-05 21:23 47.39003 -58.78377 36969 ft 527 kts 58°
2026-05-05 21:24 47.42399 -58.68777 36975 ft 528 kts 58°
2026-05-05 21:24 47.45804 -58.59118 36983 ft 529 kts 58°
2026-05-05 21:25 47.49197 -58.49459 36984 ft 529 kts 58°
2026-05-05 21:25 47.52566 -58.39830 37009 ft 530 kts 58°
2026-05-05 21:26 47.55951 -58.30119 37009 ft 529 kts 58°
2026-05-05 21:26 47.59317 -58.20430 37007 ft 528 kts 58°
2026-05-05 21:27 47.62670 -58.10742 37001 ft 528 kts 58°
2026-05-05 21:27 47.66001 -58.01081 37017 ft 528 kts 58°
2026-05-05 21:28 47.69333 -57.91378 37007 ft 527 kts 58°
2026-05-05 21:28 47.72661 -57.81655 36999 ft 526 kts 58°
2026-05-05 21:29 47.75955 -57.71993 36991 ft 526 kts 58°
2026-05-05 21:29 47.79257 -57.62272 37002 ft 526 kts 58°
2026-05-05 21:30 47.82557 -57.52520 36996 ft 526 kts 59°
2026-05-05 21:30 47.85818 -57.42846 36988 ft 525 kts 59°
2026-05-05 21:31 47.89071 -57.33164 36988 ft 524 kts 59°
2026-05-05 21:31 47.92328 -57.23430 36993 ft 524 kts 59°
2026-05-05 21:32 47.95576 -57.13685 36991 ft 524 kts 59°
2026-05-05 21:32 47.98800 -57.03976 36975 ft 523 kts 59°
2026-05-05 21:33 48.02024 -56.94232 36944 ft 523 kts 59°
2026-05-05 21:33 48.05247 -56.84452 36956 ft 523 kts 59°
2026-05-05 21:34 48.08438 -56.74732 36939 ft 522 kts 59°
2026-05-05 21:34 48.11634 -56.64958 36922 ft 522 kts 59°
2026-05-05 21:35 48.14806 -56.55223 36920 ft 521 kts 59°
2026-05-05 21:35 48.17958 -56.45510 36920 ft 521 kts 59°
2026-05-05 21:36 48.21128 -56.35707 36914 ft 520 kts 59°
2026-05-05 21:36 48.24260 -56.25982 36910 ft 520 kts 60°
2026-05-05 21:37 48.27399 -56.16196 36916 ft 519 kts 60°
2026-05-05 21:37 48.30531 -56.06399 36915 ft 519 kts 60°
2026-05-05 21:38 48.33637 -55.96641 36915 ft 520 kts 60°
2026-05-05 21:38 48.36750 -55.86824 36926 ft 520 kts 60°
2026-05-05 21:39 48.39873 -55.76938 36928 ft 520 kts 60°
2026-05-05 21:39 48.42960 -55.67129 36913 ft 521 kts 60°
2026-05-05 21:40 48.46054 -55.57256 36925 ft 522 kts 60°
2026-05-05 21:40 48.48647 -55.48950 36935 ft 522 kts 60°
2026-05-05 21:41 48.52225 -55.37446 36934 ft 523 kts 60°
2026-05-05 21:41 48.54799 -55.29136 36922 ft 524 kts 60°
2026-05-05 21:42 48.57885 -55.19137 36929 ft 524 kts 61°
2026-05-05 21:42 48.60952 -55.09161 36934 ft 524 kts 61°
2026-05-05 21:43 48.64017 -54.99149 36936 ft 525 kts 61°
2026-05-05 21:43 48.67067 -54.89148 36923 ft 526 kts 61°
2026-05-05 21:44 48.70128 -54.79067 36924 ft 526 kts 61°
2026-05-05 21:44 48.73156 -54.69055 36925 ft 526 kts 61°
2026-05-05 21:45 48.76198 -54.58955 36920 ft 526 kts 61°
2026-05-05 21:45 48.79222 -54.48874 36921 ft 527 kts 61°
2026-05-05 21:46 48.82254 -54.38728 36923 ft 527 kts 61°
2026-05-05 21:46 48.85257 -54.28633 36942 ft 527 kts 61°
2026-05-05 21:47 48.88273 -54.18453 36937 ft 527 kts 61°
2026-05-05 21:47 48.91272 -54.08286 36920 ft 527 kts 61°
2026-05-05 21:48 48.94273 -53.98071 36927 ft 528 kts 61°
2026-05-05 21:48 48.97255 -53.87879 36929 ft 528 kts 62°
2026-05-05 21:49 49.00237 -53.77642 36935 ft 528 kts 61°
2026-05-05 21:49 49.03196 -53.67445 36939 ft 528 kts 62°
2026-05-05 21:50 49.06161 -53.57182 36933 ft 528 kts 62°
2026-05-05 21:50 49.09097 -53.46974 36934 ft 528 kts 62°
2026-05-05 21:51 49.12043 -53.36689 36933 ft 528 kts 62°
2026-05-05 21:51 49.14983 -53.26384 36960 ft 528 kts 63°
2026-05-05 21:52 49.19350 -53.10984 36954 ft 527 kts 63°
2026-05-05 21:53 49.22266 -53.00650 36936 ft 527 kts 63°
2026-05-05 21:53 49.25145 -52.90401 36932 ft 527 kts 63°
2026-05-05 21:54 49.28041 -52.80051 36946 ft 527 kts 64°
2026-05-05 21:54 49.30908 -52.69757 36945 ft 527 kts 64°
2026-05-05 21:55 49.33790 -52.59363 36945 ft 528 kts 64°
2026-05-05 21:55 49.36642 -52.49039 36941 ft 528 kts 64°
2026-05-05 21:56 49.39498 -52.38681 36947 ft 529 kts 64°
2026-05-05 21:56 49.42367 -52.28236 36947 ft 529 kts 64°
2026-05-05 21:57 49.45218 -52.17810 36947 ft 529 kts 64°
2026-05-05 21:57 49.48046 -52.07420 36947 ft 529 kts 64°
2026-05-05 21:58 49.50808 -51.96968 36947 ft 529 kts 66°
2026-05-05 21:58 49.53473 -51.86399 36935 ft 529 kts 65°
2026-05-05 21:59 49.56253 -51.75889 36941 ft 529 kts 65°
2026-05-05 21:59 49.58980 -51.65394 36959 ft 530 kts 65°
2026-05-05 22:00 49.61703 -51.54796 36950 ft 532 kts 65°
2026-05-05 22:00 49.64420 -51.44161 36956 ft 532 kts 65°
2026-05-05 22:01 49.67116 -51.33555 36953 ft 533 kts 66°
2026-05-05 22:01 49.69822 -51.22867 36961 ft 533 kts 66°
2026-05-05 22:02 49.72513 -51.12184 36970 ft 534 kts 66°
2026-05-05 22:02 49.75184 -51.01533 36947 ft 534 kts 66°
2026-05-05 22:03 49.77873 -50.90758 36954 ft 534 kts 66°
2026-05-05 22:03 49.80529 -50.80059 36955 ft 534 kts 66°
2026-05-05 22:04 49.83175 -50.69355 36976 ft 534 kts 66°
2026-05-05 22:04 49.85825 -50.58581 36955 ft 534 kts 66°
2026-05-05 22:05 49.88464 -50.47799 36952 ft 533 kts 66°
2026-05-05 22:05 49.91072 -50.37088 36952 ft 533 kts 66°
2026-05-05 22:06 49.93685 -50.26308 36950 ft 533 kts 67°
2026-05-05 22:06 49.96277 -50.15560 36940 ft 533 kts 67°
2026-05-05 22:07 49.98868 -50.04759 36940 ft 532 kts 67°
2026-05-05 22:07 50.00914 -49.93733 36945 ft 535 kts 76°
2026-05-05 22:08 50.02510 -49.82404 36951 ft 535 kts 75°
2026-05-05 22:08 50.04144 -49.71099 36985 ft 534 kts 76°
2026-05-05 22:09 50.05754 -49.59898 36965 ft 533 kts 76°
2026-05-05 22:09 50.07362 -49.48615 36958 ft 533 kts 76°
2026-05-05 22:10 50.08946 -49.37382 36964 ft 532 kts 76°
2026-05-05 22:10 50.10522 -49.26078 36961 ft 532 kts 76°
2026-05-05 22:11 50.12074 -49.14855 36975 ft 531 kts 77°
2026-05-05 22:11 50.13616 -49.03607 36969 ft 530 kts 77°
2026-05-05 22:12 50.15150 -48.92342 36970 ft 530 kts 77°
2026-05-05 22:12 50.16660 -48.81160 36968 ft 529 kts 77°
2026-05-05 22:13 50.18168 -48.69912 36983 ft 529 kts 77°
2026-05-05 22:13 50.19661 -48.58687 36977 ft 529 kts 77°
2026-05-05 22:14 50.21149 -48.47403 36982 ft 529 kts 77°
2026-05-05 22:14 50.22617 -48.36190 36984 ft 530 kts 77°
2026-05-05 22:15 50.24085 -48.24883 36977 ft 530 kts 78°
2026-05-05 22:15 50.25538 -48.13607 36992 ft 531 kts 78°
2026-05-05 22:16 50.26988 -48.02248 36992 ft 531 kts 78°
2026-05-05 22:16 50.28420 -47.90944 36992 ft 532 kts 78°
2026-05-05 22:17 50.29849 -47.79571 37002 ft 532 kts 78°
2026-05-05 22:17 50.31257 -47.68271 37002 ft 532 kts 78°
2026-05-05 22:18 50.32664 -47.56885 37007 ft 532 kts 79°
2026-05-05 22:18 50.34060 -47.45487 37000 ft 532 kts 79°
2026-05-05 22:19 50.35445 -47.34084 37001 ft 532 kts 79°
2026-05-05 22:19 50.36812 -47.22728 37002 ft 533 kts 79°
2026-05-05 22:20 50.38170 -47.11351 37010 ft 533 kts 79°
2026-05-05 22:20 50.39526 -46.99892 37017 ft 533 kts 79°
2026-05-05 22:21 50.40862 -46.88501 37017 ft 534 kts 79°
2026-05-05 22:21 50.42196 -46.77020 37029 ft 534 kts 79°
2026-05-05 22:22 50.43518 -46.65544 37025 ft 533 kts 79°
2026-05-05 22:22 50.44819 -46.54151 37044 ft 533 kts 80°
2026-05-05 22:23 50.46120 -46.42637 37039 ft 533 kts 80°
2026-05-05 22:23 50.47397 -46.31233 37028 ft 532 kts 80°
2026-05-05 22:24 50.48664 -46.19820 37038 ft 531 kts 80°
2026-05-05 22:24 50.49924 -46.08366 37037 ft 531 kts 80°
2026-05-05 22:25 50.51172 -45.96912 37042 ft 531 kts 81°
2026-05-05 22:25 50.52397 -45.85550 37032 ft 530 kts 81°
2026-05-05 22:26 50.53622 -45.74087 37038 ft 530 kts 81°
2026-05-05 22:26 50.54828 -45.62692 37041 ft 531 kts 81°
2026-05-05 22:27 50.56033 -45.51192 37046 ft 531 kts 81°
2026-05-05 22:27 50.57225 -45.39711 37065 ft 531 kts 81°
2026-05-05 22:28 50.58397 -45.28294 37059 ft 530 kts 81°
2026-05-05 22:28 50.59370 -45.18738 37067 ft 530 kts 81°
2026-05-05 22:29 50.60522 -45.07309 37065 ft 530 kts 81°
2026-05-05 22:29 50.61668 -44.95835 37058 ft 530 kts 81°
2026-05-05 22:30 50.62801 -44.84364 37076 ft 529 kts 82°
2026-05-05 22:30 50.63917 -44.72949 37073 ft 529 kts 82°
2026-05-05 22:31 50.65028 -44.61457 37072 ft 529 kts 82°
2026-05-05 22:31 50.66126 -44.49982 37077 ft 529 kts 82°
2026-05-05 22:32 50.67208 -44.38556 37082 ft 529 kts 82°
2026-05-05 22:32 50.68279 -44.27121 37086 ft 528 kts 82°
2026-05-05 22:33 50.69341 -44.15650 37079 ft 528 kts 82°
2026-05-05 22:33 50.70392 -44.04182 37082 ft 527 kts 82°
2026-05-05 22:34 50.71427 -43.92748 37081 ft 527 kts 82°
2026-05-05 22:34 50.72454 -43.81293 37091 ft 528 kts 83°
2026-05-05 22:35 50.73466 -43.69861 37088 ft 527 kts 83°
2026-05-05 22:35 50.74472 -43.58370 37107 ft 527 kts 83°
2026-05-05 22:36 50.75466 -43.46875 37110 ft 527 kts 83°
2026-05-05 22:36 50.76449 -43.35379 37097 ft 527 kts 83°
2026-05-05 22:37 50.77416 -43.23928 37099 ft 528 kts 83°
2026-05-05 22:37 50.78377 -43.12413 37101 ft 528 kts 83°
2026-05-05 22:38 50.79321 -43.00959 37098 ft 528 kts 84°
2026-05-05 22:38 50.80261 -42.89416 37112 ft 528 kts 84°
2026-05-05 22:39 50.81189 -42.77882 37108 ft 528 kts 84°
2026-05-05 22:39 50.82100 -42.66406 37114 ft 527 kts 84°
2026-05-05 22:40 50.83003 -42.54876 37101 ft 527 kts 84°
2026-05-05 22:40 50.83888 -42.43434 37117 ft 526 kts 84°
2026-05-05 22:41 50.84767 -42.31923 37119 ft 526 kts 84°
2026-05-05 22:41 50.85635 -42.20410 37121 ft 526 kts 84°
2026-05-05 22:42 50.86490 -42.08905 37132 ft 526 kts 84°
2026-05-05 22:42 50.87331 -41.97440 37127 ft 526 kts 84°
2026-05-05 22:43 50.88164 -41.85916 37132 ft 525 kts 84°
2026-05-05 22:43 50.88984 -41.74422 37130 ft 525 kts 84°
2026-05-05 22:44 50.89793 -41.62915 37123 ft 525 kts 84°
2026-05-05 22:44 50.90585 -41.51474 37135 ft 525 kts 85°
2026-05-05 22:45 50.91371 -41.39976 37134 ft 525 kts 85°
2026-05-05 22:45 50.92145 -41.28465 37133 ft 525 kts 85°
2026-05-05 22:46 50.92903 -41.17024 37137 ft 525 kts 85°
2026-05-05 22:46 50.93656 -41.05493 37149 ft 524 kts 85°
2026-05-05 22:47 50.94397 -40.93960 37149 ft 524 kts 85°
2026-05-05 22:47 50.95120 -40.82543 37143 ft 524 kts 85°
2026-05-05 22:48 50.95839 -40.71005 37145 ft 524 kts 85°
2026-05-05 22:48 50.96545 -40.59472 37144 ft 525 kts 85°
2026-05-05 22:49 50.97238 -40.47989 37157 ft 525 kts 86°
2026-05-05 22:49 50.97923 -40.36499 37160 ft 525 kts 86°
2026-05-05 22:50 50.98605 -40.24971 37159 ft 525 kts 86°
2026-05-05 22:50 50.99277 -40.13440 37166 ft 524 kts 86°
2026-05-05 22:51 50.99938 -40.01901 37138 ft 524 kts 86°
2026-05-05 22:51 51.01071 -39.90451 37143 ft 525 kts 77°
2026-05-05 22:52 51.02875 -39.79262 37166 ft 526 kts 77°
2026-05-05 22:52 51.04592 -39.67923 37173 ft 526 kts 78°
2026-05-05 22:53 51.06226 -39.56562 37173 ft 527 kts 78°
2026-05-05 22:53 51.07828 -39.45261 37175 ft 527 kts 78°
2026-05-05 22:54 51.09424 -39.33879 37185 ft 526 kts 79°
2026-05-05 22:54 51.11003 -39.22498 37184 ft 526 kts 79°
2026-05-05 22:55 51.12402 -39.12343 37179 ft 525 kts 79°
2026-05-05 22:55 51.13951 -39.01022 37178 ft 525 kts 79°
2026-05-05 22:56 51.15495 -38.89642 37162 ft 524 kts 79°
2026-05-05 22:56 51.17025 -38.78280 37174 ft 524 kts 79°
2026-05-05 22:57 51.18543 -38.66913 37175 ft 524 kts 79°
2026-05-05 22:57 51.20043 -38.55597 37181 ft 525 kts 79°
2026-05-05 22:58 51.21541 -38.44201 37194 ft 525 kts 79°
2026-05-05 22:58 51.23031 -38.32777 37204 ft 524 kts 79°
2026-05-05 22:59 51.24500 -38.21420 37205 ft 524 kts 80°
2026-05-05 22:59 51.25966 -38.09990 37197 ft 524 kts 80°
2026-05-05 23:00 51.28131 -37.92951 37213 ft 523 kts 80°
2026-05-05 23:00 51.29563 -37.81550 37206 ft 522 kts 80°
2026-05-05 23:01 51.30984 -37.70150 37196 ft 522 kts 80°
2026-05-05 23:01 51.32384 -37.58822 37193 ft 522 kts 80°
2026-05-05 23:02 51.33780 -37.47430 37195 ft 522 kts 81°
2026-05-05 23:02 51.35170 -37.35991 37201 ft 522 kts 81°
2026-05-05 23:03 51.36547 -37.24558 37203 ft 523 kts 81°
2026-05-05 23:03 51.37904 -37.13198 37207 ft 523 kts 81°
2026-05-05 23:04 51.39262 -37.01724 37212 ft 523 kts 81°
2026-05-05 23:04 51.40605 -36.90276 37224 ft 522 kts 81°
2026-05-05 23:05 51.41926 -36.78917 37218 ft 521 kts 81°
2026-05-05 23:05 51.43245 -36.67475 37214 ft 520 kts 81°
2026-05-05 23:06 51.44548 -36.56066 37192 ft 520 kts 82°
2026-05-05 23:06 51.45838 -36.44648 37201 ft 520 kts 81°
2026-05-05 23:07 51.47117 -36.33260 37201 ft 521 kts 81°
2026-05-05 23:07 51.48389 -36.21814 37204 ft 521 kts 82°
2026-05-05 23:08 51.49643 -36.10424 37213 ft 521 kts 82°
2026-05-05 23:08 51.50896 -35.98928 37215 ft 522 kts 82°
2026-05-05 23:09 51.52137 -35.87444 37227 ft 521 kts 82°
2026-05-05 23:09 51.53357 -35.76034 37224 ft 521 kts 82°
2026-05-05 23:10 51.54573 -35.64561 37221 ft 520 kts 82°
2026-05-05 23:10 51.55777 -35.53085 37212 ft 519 kts 82°
2026-05-05 23:11 51.56959 -35.41709 37206 ft 519 kts 82°
2026-05-05 23:11 51.58135 -35.30274 37214 ft 518 kts 82°
2026-05-05 23:12 51.59302 -35.18818 37211 ft 518 kts 82°
2026-05-05 23:12 51.60449 -35.07440 37208 ft 517 kts 82°
2026-05-05 23:13 51.61591 -34.96000 37211 ft 517 kts 83°
2026-05-05 23:13 51.62720 -34.84575 37209 ft 517 kts 83°
2026-05-05 23:14 51.63837 -34.73145 37212 ft 516 kts 83°
2026-05-05 23:14 51.64937 -34.61778 37210 ft 516 kts 83°
2026-05-05 23:15 51.66032 -34.50336 37200 ft 515 kts 83°
2026-05-05 23:15 51.67114 -34.38919 37191 ft 515 kts 83°
2026-05-05 23:16 51.68003 -34.29438 37199 ft 514 kts 83°
2026-05-05 23:16 51.69232 -34.16183 37201 ft 514 kts 83°
2026-05-05 23:17 51.70103 -34.06691 37199 ft 514 kts 83°
2026-05-05 23:17 51.71139 -33.95292 37197 ft 514 kts 83°
2026-05-05 23:18 51.72165 -33.83868 37194 ft 514 kts 84°
2026-05-05 23:18 51.73179 -33.72450 37194 ft 514 kts 84°
2026-05-05 23:19 51.74177 -33.61091 37189 ft 514 kts 84°
2026-05-05 23:19 51.75168 -33.49665 37195 ft 514 kts 84°
2026-05-05 23:20 51.76149 -33.38236 37194 ft 513 kts 84°
2026-05-05 23:20 51.77118 -33.26812 37183 ft 513 kts 84°
2026-05-05 23:21 51.78070 -33.15451 37178 ft 513 kts 84°
2026-05-05 23:21 51.79015 -33.04034 37176 ft 513 kts 84°
2026-05-05 23:22 51.79950 -32.92603 37169 ft 513 kts 84°
2026-05-05 23:22 51.80875 -32.81145 37170 ft 514 kts 84°
2026-05-05 23:23 51.81790 -32.69682 37179 ft 514 kts 84°
2026-05-05 23:23 51.82688 -32.58288 37179 ft 514 kts 84°
2026-05-05 23:24 51.83581 -32.46802 37182 ft 514 kts 84°
2026-05-05 23:24 51.84462 -32.35338 37180 ft 513 kts 84°
2026-05-05 23:25 51.85330 -32.23876 37188 ft 512 kts 84°
2026-05-05 23:25 51.86186 -32.12435 37186 ft 512 kts 84°
2026-05-05 23:26 51.87024 -32.01075 37179 ft 511 kts 84°
2026-05-05 23:26 51.87856 -31.89641 37177 ft 511 kts 84°
2026-05-05 23:27 51.88677 -31.78206 37154 ft 510 kts 84°
2026-05-05 23:27 51.89481 -31.66843 37185 ft 510 kts 84°
2026-05-05 23:28 51.90280 -31.55407 37188 ft 510 kts 84°
2026-05-05 23:28 51.91061 -31.44055 37194 ft 510 kts 85°
2026-05-05 23:29 51.91837 -31.32623 37195 ft 510 kts 85°
2026-05-05 23:29 51.92602 -31.21182 37196 ft 510 kts 85°
2026-05-05 23:30 51.93355 -31.09743 37194 ft 510 kts 85°
2026-05-05 23:30 51.94092 -30.98378 37190 ft 510 kts 85°
2026-05-05 23:31 51.94823 -30.86934 37194 ft 510 kts 85°
2026-05-05 23:31 51.95543 -30.75481 37199 ft 510 kts 85°
2026-05-05 23:32 51.96252 -30.64033 37218 ft 509 kts 85°
2026-05-05 23:32 51.96943 -30.52691 37219 ft 508 kts 85°
2026-05-05 23:33 51.97628 -30.41276 37218 ft 507 kts 85°
2026-05-05 23:33 51.98308 -30.29869 37221 ft 507 kts 85°
2026-05-05 23:34 51.98976 -30.18541 37229 ft 506 kts 85°
2026-05-05 23:34 51.99634 -30.07180 37226 ft 505 kts 86°
2026-05-05 23:35 52.00349 -29.95837 37206 ft 504 kts 81°
2026-05-05 23:35 52.01994 -29.84768 37210 ft 505 kts 76°
2026-05-05 23:36 52.03730 -29.73719 37208 ft 504 kts 77°
2026-05-05 23:36 52.05338 -29.62715 37240 ft 503 kts 77°
2026-05-05 23:37 52.06919 -29.51602 37244 ft 503 kts 78°
2026-05-05 23:37 52.08471 -29.40581 37239 ft 503 kts 78°
2026-05-05 23:38 52.10017 -29.29488 37237 ft 502 kts 78°
2026-05-05 23:38 52.11552 -29.18373 37252 ft 502 kts 78°
2026-05-05 23:39 52.13065 -29.07338 37250 ft 501 kts 78°
2026-05-05 23:39 52.14575 -28.96244 37241 ft 501 kts 78°
2026-05-05 23:40 52.16072 -28.85155 37244 ft 501 kts 78°
2026-05-05 23:40 52.17559 -28.74063 37245 ft 501 kts 78°
2026-05-05 23:41 52.19036 -28.62956 37254 ft 501 kts 77°
2026-05-05 23:41 52.20494 -28.51910 37258 ft 502 kts 78°
2026-05-05 23:42 52.21953 -28.40765 37252 ft 502 kts 78°
2026-05-05 23:42 52.23402 -28.29613 37259 ft 501 kts 78°
2026-05-05 23:43 52.24830 -28.18532 37261 ft 501 kts 78°
2026-05-05 23:43 52.26257 -28.07374 37262 ft 501 kts 78°
2026-05-05 23:44 52.27662 -27.96303 37263 ft 500 kts 78°
2026-05-05 23:44 52.29061 -27.85180 37258 ft 500 kts 78°
2026-05-05 23:45 52.30451 -27.74041 37275 ft 499 kts 77°
2026-05-05 23:45 52.31828 -27.62912 37267 ft 498 kts 77°
2026-05-05 23:46 52.33194 -27.51792 37262 ft 498 kts 77°
2026-05-05 23:46 52.34537 -27.40764 37259 ft 497 kts 78°
2026-05-05 23:47 52.35879 -27.29658 37260 ft 497 kts 78°
2026-05-05 23:47 52.37206 -27.18562 37253 ft 497 kts 77°
2026-05-05 23:48 52.38528 -27.07439 37256 ft 497 kts 77°
2026-05-05 23:48 52.39831 -26.96370 37257 ft 497 kts 77°
2026-05-05 23:49 52.41134 -26.85211 37248 ft 498 kts 77°
2026-05-05 23:49 52.42415 -26.74136 37252 ft 498 kts 77°
2026-05-05 23:50 52.43700 -26.62939 37258 ft 499 kts 77°
2026-05-05 23:50 52.44967 -26.51798 37260 ft 499 kts 77°
2026-05-05 23:51 52.46230 -26.40591 37269 ft 499 kts 77°
2026-05-05 23:51 52.47485 -26.29360 37263 ft 500 kts 77°
2026-05-05 23:52 52.48727 -26.18133 37264 ft 500 kts 77°
2026-05-05 23:52 52.49952 -26.06965 37261 ft 500 kts 77°
2026-05-05 23:53 52.51174 -25.95720 37265 ft 500 kts 78°
2026-05-05 23:53 52.52386 -25.84468 37259 ft 500 kts 78°
2026-05-05 23:54 52.53579 -25.73275 37265 ft 500 kts 77°
2026-05-05 23:54 52.54770 -25.62003 37263 ft 499 kts 77°
2026-05-05 23:55 52.55947 -25.50758 37257 ft 499 kts 77°
2026-05-05 23:55 52.57115 -25.39486 37255 ft 499 kts 78°
2026-05-05 23:56 52.58266 -25.28280 37255 ft 499 kts 78°
2026-05-05 23:56 52.59413 -25.16989 37261 ft 499 kts 77°
2026-05-05 23:57 52.60540 -25.05790 37258 ft 499 kts 77°
2026-05-05 23:57 52.61665 -24.94510 37250 ft 499 kts 78°
2026-05-05 23:58 52.62776 -24.83241 37254 ft 498 kts 78°
2026-05-05 23:58 52.63872 -24.72012 37265 ft 498 kts 77°
2026-05-05 23:59 52.64963 -24.60726 37253 ft 498 kts 77°
2026-05-05 23:59 52.66043 -24.49440 37252 ft 497 kts 77°
2026-05-06 00:00 52.67102 -24.38254 37244 ft 497 kts 77°
2026-05-06 00:00 52.68159 -24.26974 37266 ft 497 kts 78°
2026-05-06 00:01 52.69205 -24.15687 37244 ft 497 kts 77°
2026-05-06 00:01 52.70240 -24.04401 37240 ft 497 kts 78°
2026-05-06 00:02 52.71255 -23.93205 37243 ft 496 kts 78°
2026-05-06 00:02 52.72266 -23.81934 37245 ft 496 kts 78°
2026-05-06 00:03 52.73267 -23.70653 37235 ft 496 kts 78°
2026-05-06 00:03 52.74256 -23.59381 37237 ft 496 kts 78°
2026-05-06 00:04 52.75229 -23.48171 37233 ft 496 kts 78°
2026-05-06 00:04 52.76040 -23.38718 37233 ft 496 kts 78°
2026-05-06 00:05 52.77468 -23.21861 37238 ft 496 kts 78°
2026-05-06 00:06 52.78412 -23.10546 37236 ft 496 kts 78°
2026-05-06 00:06 52.79341 -22.99284 37234 ft 496 kts 78°
2026-05-06 00:07 52.80412 -22.86134 37230 ft 496 kts 78°
2026-05-06 00:07 52.81173 -22.76673 37229 ft 496 kts 78°
2026-05-06 00:08 52.82073 -22.65356 37229 ft 496 kts 78°
2026-05-06 00:08 52.82956 -22.54106 37226 ft 496 kts 78°
2026-05-06 00:09 52.83835 -22.42782 37226 ft 495 kts 78°
2026-05-06 00:09 52.84701 -22.31469 37218 ft 495 kts 78°
2026-05-06 00:10 52.85552 -22.20210 37229 ft 495 kts 78°
2026-05-06 00:10 52.86397 -22.08890 37219 ft 495 kts 78°
2026-05-06 00:11 52.87232 -21.97558 37220 ft 495 kts 78°
2026-05-06 00:11 52.88049 -21.86312 37214 ft 495 kts 78°
2026-05-06 00:12 52.88861 -21.74987 37212 ft 495 kts 79°
2026-05-06 00:12 52.89663 -21.63651 37219 ft 495 kts 79°
2026-05-06 00:13 52.90450 -21.52361 37209 ft 495 kts 79°
2026-05-06 00:13 52.91230 -21.41018 37214 ft 495 kts 79°
2026-05-06 00:14 52.91998 -21.29691 37212 ft 495 kts 79°
2026-05-06 00:14 52.92758 -21.18323 37212 ft 495 kts 79°
2026-05-06 00:15 52.93501 -21.07026 37205 ft 495 kts 79°
2026-05-06 00:15 52.94239 -20.95662 37211 ft 496 kts 79°
2026-05-06 00:16 52.94966 -20.84276 37212 ft 496 kts 79°
2026-05-06 00:16 52.95678 -20.72962 37213 ft 496 kts 79°
2026-05-06 00:17 52.96385 -20.61556 37212 ft 496 kts 79°
2026-05-06 00:17 52.97079 -20.50170 37210 ft 496 kts 80°
2026-05-06 00:18 52.97765 -20.38765 37212 ft 495 kts 80°
2026-05-06 00:18 52.98442 -20.27453 37202 ft 495 kts 80°
2026-05-06 00:19 52.99115 -20.16056 37224 ft 495 kts 80°
2026-05-06 00:19 52.99769 -20.04681 37202 ft 495 kts 81°
2026-05-06 00:20 53.00155 -19.93312 37193 ft 497 kts 85°
2026-05-06 00:20 53.00325 -19.81853 37186 ft 496 kts 84°
2026-05-06 00:21 53.00573 -19.70381 37198 ft 496 kts 84°
2026-05-06 00:21 53.00795 -19.58899 37202 ft 497 kts 84°
2026-05-06 00:22 53.00992 -19.47479 37195 ft 497 kts 84°
2026-05-06 00:22 53.01176 -19.35954 37196 ft 498 kts 84°
2026-05-06 00:23 53.01349 -19.24511 37202 ft 498 kts 84°
2026-05-06 00:23 53.01512 -19.12989 37198 ft 498 kts 84°